www.pogodaiklimat.ru

Погода и климат >> Архив погоды >> Гана >> Тема


ПОГОДА в Тема

  • Прогноз погоды в Тема
  • Монитор погоды в Тема

АРХИВ ПОГОДЫ в Тема

Время (UTC), дата Ветер
(напр.,м/с)
 
Видим.   Явления Облачность Т
(С)
Тd
(С)
f
(%)
Тe
(С)
Тes
(С)
Комфортность P
(гПа)
Po
(гПа)
Тmin
(С)
Tmax
(С)
R
(мм)
R24
(мм)
S
(см)
15 14.08 ЮЗ 4 18 км 8/4 360 м
[Cu Sc Ac trans]
+27.5 +23.7 80 +38 +40 очень
душно
1013.0 1010.9
18 14.08 ЮЗ 5 18 км 8/3 360 м
[Cu med, cong Ci sp]
+25.4 +23.5 89 +34 +34 очень
душно
1012.8 1010.7 +28.8
21 14.08 ЮЗ 1 10 км 4/3 300 м
[Sc Ci sp]
+24.7 +23.7 94 +34 +34 очень
душно
1014.5 1012.4
00 15.08 ЮЗ 6 10 км 9/9 300 м
[Sc]
+24.5 +23.6 95 +33 +33 очень
душно
1014.0 1011.9
03 15.08 ЮЗ 3 10 км 9/9 300 м
[Sc]
+24.5 +23.5 94 +33 +33 очень
душно
1013.5 1011.4
06 15.08 ЮЗ 1 14 км 9/5 360 м
[Sc Ac trans Cs]
+24.0 +23.5 97 +32 +32 очень
душно
1013.9 1011.8 +24.0
12 15.08 ЮЗ 4 10 км 9/4 480 м
[Cu med, cong Ac trans]
+27.0 +23.5 81 +37 +41 очень
душно
1014.8 1012.7
15 15.08 ЮВ 5 12 км 3/1 500 м
[Cu med, cong Ac trans]
+26.6 +23.9 85 +37 +41 очень
душно
1012.8 1010.7
21 15.08 ЮЗ 3 9000 м дымка 8/6 330 м
[Sc Ci sp]
+24.8 +23.6 93 +34 +34 очень
душно
1014.2 1012.1
00 16.08 ЮЗ 3 9000 м 5/5 330 м
[Sc]
+24.5 +23.3 93 +33 +33 очень
душно
1013.5 1011.4
06 16.08 9000 м дымка н/о +24.3 +23.1 93 +32 +32 очень
душно
1013.8 1011.7 +24.0
09 16.08 ЮЗ 3 14 км 6/4 360 м
[Cu Sc Ac trans Ci sp]
+26.5 +23.0 81 +35 +40 очень
душно
1015.3 1013.2
12 16.08 ЮЗ 3 16 км 6/4 500 м
[Cu med, cong Ac trans]
+28.5 +22.3 69 +37 +46 очень
душно
1013.7 1011.6
15 16.08 ЮЗ 4 16 км 6/3 500 м
[Cu med, cong Ac trans]
+27.7 +22.4 73 +36 +40 очень
душно
1011.7 1009.6
18 16.08 ЮЗ 5 10 км 5/3 360 м
[Sc Ac trans]
+25.6 +23.7 89 +35 +35 очень
душно
1011.2 1009.1 +29.4
00 17.08 ЮЗ 4 10 км 4/3 330 м
[Sc Ac trans]
+24.8 +23.2 91 +33 +33 очень
душно
1013.4 1011.3
03 17.08 З 3 10 км 8/5 360 м
[Sc Ac trans Cs]
+24.6 +23.4 93 +33 +33 очень
душно
1012.4 1010.3
09 17.08 ЮЗ 4 12 км 6/4 450 м
[Cu med, cong Ci sp]
+28.0 +22.5 72 +37 +41 очень
душно
1014.1 1012.0
12 17.08 ЮЗ 5 14 км 6/4 500 м
[Cu med, cong Ac trans]
+28.0 +28.0 100 +46 +52 опасность
перегрева
1013.3 1011.2
15 17.08 ЮЗ 5 14 км 5/1 500 м
[Cu med, cong Ac trans]
+27.7 +23.5 78 +38 +41 очень
душно
1011.4 1009.3
18 17.08 ЮЗ 4 14 км 3/3 330 м
[Sc]
+25.7 +23.6 88 +35 +35 очень
душно
1010.6 1008.5 +30.5
21 17.08 ЮЗ 4 10 км 8/8 300 м
[Sc]
+25.0 +23.6 92 +34 +34 очень
душно
1012.6 1010.5
00 18.08 ЮЗ 4 10 км 5/5 300 м
[Sc]
+24.5 +23.5 94 +33 +33 очень
душно
1012.4 1010.3
03 18.08 ЮЗ 4 10 км 6/3 300 м
[Sc Ac trans]
+24.5 +23.1 92 +33 +33 очень
душно
1011.4 1009.3
06 18.08 ЮЗ 3 10 км 6/3 300 м
[Sc Ac trans Ci sp]
+24.5 +23.1 92 +33 +33 очень
душно
1012.0 1009.9 +24.5
12 18.08 ЮЗ 5 16 км 6/4 500 м
[Cu med, cong Ac trans]
+29.3 +22.5 67 +39 +44 очень
душно
1013.4 1011.3
15 18.08 ЮЗ 5 18 км 1/1 540 м
[Cu med, cong]
+27.5 +23.3 78 +37 +42 очень
душно
1010.6 1008.5
18 18.08 ЮЗ 2 18 км 1/0 300 м
[Ac trans]
+25.7 +23.2 86 +34 +34 очень
душно
1009.9 1007.8 +29.9
21 18.08 З 4 10 км 8/8 330 м
[Sc]
+24.8 +23.8 94 +34 +34 очень
душно
1011.7 1009.6
00 19.08 ЮЗ 4 10 км 8/8 330 м
[Sc]
+25.0 +23.6 92 +34 +34 очень
душно
1012.8 1010.7
03 19.08 ЮЗ 5 10 км 8/8 330 м
[Sc]
+24.9 +23.7 93 +34 +34 очень
душно
1011.6 1009.5
06 19.08 СЗ 4 10 км 9/9 330 м
[Sc]
+24.7 +23.7 94 +34 +34 очень
душно
1012.5 1010.4 +24.7
09 19.08 ЮЗ 3 15 км 9/5 360 м
[Cu Sc Ac trans]
+26.8 +23.5 82 +36 +39 очень
душно
1013.9 1011.8
12 19.08 ЮЗ 5 18 км 5/3 480 м
[Cu med, cong Ac trans Ci sp]
+28.5 +23.6 75 +39 +46 очень
душно
1013.3 1011.2
15 19.08 ЮЗ 7 18 км 6/4 360 м
[Cu Sc Ci sp]
+26.6 +23.1 81 +36 +37 очень
душно
1010.9 1008.8
18 19.08 ЮЗ 6 18 км 8/6 360 м
[Cu Sc Ci sp]
+25.0 +23.1 89 +33 +33 очень
душно
1011.1 1009.0 +29.1
21 19.08 ЮЗ 2 10 км 4/4 300 м
[Sc]
+24.3 +23.3 94 +33 +33 очень
душно
1012.7 1010.6
00 20.08 ЮЗ 3 10 км 9/9 300 м
[Sc]
+24.3 +23.3 94
03 20.08 ЮЗ 3 10 км 9/9 300 м
[Sc]
+24.0 +22.6 92 +31 +31 очень
душно
1011.5 1009.4
06 20.08 ЮЗ 3 14 км 9/9 360 м
[Sc]
+24.5 +23.1 92 +33 +33 очень
душно
1012.4 1010.3 +24.0
09 20.08 ЮЗ 4 12 км 6/4 480 м
[Cu Sc Ac trans Ci sp]
+27.0 +23.5 81 +37 +40 очень
душно
1014.1 1012.0
12 20.08 ЮЗ 6 14 км 4/3 500 м
[Cu med, cong Ac trans Ci sp]
+28.5 +23.4 74 +39 +44 очень
душно
1013.3 1011.2
15 20.08 ЮЗ 6 10 км 9/3 500 м
[Cu med, cong Ac trans]
+27.0 +23.7 82 +37 +38 очень
душно
1011.6 1009.5
21 20.08 ЮЗ 4 9000 м дымка 9/9 330 м
[Sc]
+25.0 +24.1 95 +34 +34 очень
душно
1013.6 1011.5
00 21.08 ЮЗ 3 9000 м {дождь} 9/5 330 м
[Sc Ac trans]
+23.9 +23.4 97 +32 +32 очень
душно
1014.1 1012.0 5
06 21.08 ЮЗ 3 14 км 8/3 330 м
[Sc Ac trans Ci sp]
+24.5 +23.5 94 +33 +33 очень
душно
1013.7 1011.6 +23.9 5
09 21.08 ЮЗ 3 14 км 8/4 330 м
[Cu Sc Ac trans Ci sp]
+25.5 +23.9 91 +35 +39 очень
душно
1015.4 1013.3
12 21.08 ЮЗ 4 16 км 8/4 480 м
[Cu med, cong Ac trans]
+27.5 +23.3 78 +37 +42 очень
душно
1013.9 1011.8

 

Местоположение метеостанции Тема (Гана): широта 5.62 долгота 0.00 высота над уровнем моря 18 м.

В архиве по умолчанию представлена погода в Тема за последнюю неделю. Архивные данные за месяц целиком и за предыдущие месяцы, начиная с января 2011 года, Вы можете получить, выбрав интересующий диапазон дат из раскрывающегося списка и нажав кнопку "Ввод!".


*Определитесь, кто Вы:
робот инопланетянин человек

Внимание! Время в таблицах - всемирное. Для получения местного времени необходимо прибавить поправку, которая равна 1 ч.

Смотрите также архив погоды в соседних городах и на ближайших метеорологических станциях:

Погода в Аккра (Гана) (19 км)
Погода в Акюсе (Гана) (55 км)
Погода в Кофоридуа (Гана) (58 км)
Погода в Ада (Гана) (72 км)
Погода в Акатзи (Гана) (105 км)
Погода в Аким Ода (Гана) (114 км)
Погода в Хо (Гана) (121 км)
Погода в Солтпонде (Гана) (127 км)
Погода в Абетифи (Гана) (143 км)
Погода в Ломе (Того) (151 км)

Пояснения к столбцам:

Ветер - указаны скорость ветра в м/с - средняя за 10 мин, порывы в срок и между сроками (в фигурных скобках) и направление, откуда дует ветер: С - северный, СВ - северо-восточный, В - восточный, ЮВ - юго-восточный, Ю - южный, ЮЗ - юго-западный, З - западный, СЗ - северо-западный.
Видимость - горизонтальная дальность видимости в метрах или километрах. При видимости от 1 до 10 км при отсутствии осадков обычно наблюдается дымка, при ухудшении видимости до 1 км и менее - туман. В сухую погоду видимость может ухудшаться дымом, пылью или мглою.
Явления - указаны атмосферные явления, наблюдавшиеся в срок или в последний час перед сроком; фигурными скобками обозначены явления, наблюдавшиеся между сроками (за 1-3 часа до срока); квадратными скобками обозначены град или гололедные отложения с указанием их диаметра в мм.
Облачность - указаны через наклонную черту общая и нижняя облачность в баллах и высота нижней границы облаков в метрах; квадратными скобками обозначены формы облаков: Ci - перистые, Cs - перисто-слоистые, Cc - перисто-кучевые, Ac - высококучевые, As - высокослоистые, Sc - слоисто-кучевые, Ns - слоисто-дождевые, Cu - кучевые, Cb - кучево-дождевые. Подробнее классификацию облаков см. в Атласе облаков (PDF).
T - Температура воздуха - температура, измеренная на высоте 2 м над землей.
Td - Температура точки росы - температура, при понижении до которой содержащийся в воздухе водяной пар достигнет насыщения.
f - Относительная влажность воздуха - влажноcть воздуха, измеренная на высоте 2 м над землей.
Te - Эффективная температура - температура, которую ощущает одетый по сезону человек в тени. Характеристика душности погоды. При расчете учитывается влияние влажности воздуха и скорости ветра на теплоощущения человека.
Tes - Эффективная температура на солнце - температура, которую ощущает человек, с поправкой на солнечный нагрев. Характеристика знойности погоды. Зависит от высоты солнца над горизонтом, облачности и скорости ветра. Ночью, в пасмурную погоду, а также при ветре 12 м/с и более поправка равна нулю.
P - Атмосферное давление - приведенное к уровню моря атмосферное давление.
Po - Атмосферное давление - измеренное на уровне метеостанции атмосферное давление.
Tmin - Минимальная температура - минимум температуры воздуха на высоте 2 м над землей.
Tmax - Максимальная температура - максимум температуры воздуха на высоте 2 м над землей.
R - Количество осадков - Количество выпавших осадков за период времени, мм. При наведении курсора мыши на число - период времени, за который выпало указанное количество осадков.
R24 - Количество осадков - Количество выпавших осадков за 24 часа, мм.
S - Снежный покров - Высота снежного покрова, см. При наведении курсора мыши на число - состояние снежного покрова и степень покрытия местности в баллах.